[[{"header":{"parameterUnit":"m.s-1","parameterCategory":1,"la1":30.2991,"la2":30.254,"lo1":-89.0895,"lo2":-89.0444,"dy":0.0017,"dx":0.0017,"nx":28,"ny":28,"refTime":"2024-06-28T03:00:00:Z","depth":0,"parameterNumber":2,"parameterNumberName":"U-component_of_WINDS"},"data":[0,0,0,0,0,0,0,0,0,0,0,0,0,0,0,0,0,0,0,0,0,0,0,0,0,0,0,0,0,0,0,0,0,0,0,0,0,0,0,0,0,0,0,0,0,0,0,0,0,0,0,0,0,0,0,0,0,0,2.7037,2.7039,0,2.7167,2.7169,2.717,2.712,2.7117,2.7114,2.7111,2.7248,2.7254,2.726,0,0,0,0,0,0,0,0,0,0,0,0,0,2.6749,2.6754,2.7037,2.7039,2.704,2.7167,2.7169,2.7171,2.712,2.7116,2.7113,2.7109,2.7246,2.7253,2.7261,0,0,0,0,0,0,0,0,0,0,0,0,0,2.6876,2.6756,2.7037,2.703,2.7031,2.7167,2.7169,2.7171,2.7121,2.7116,2.7112,2.7108,2.7243,2.7252,2.7262,2.7413,0,0,2.7292,2.7296,0,0,0,0,0,0,0,0,2.6869,2.6887,2.703,2.7031,2.7032,2.7122,2.7117,2.7252,2.7122,2.7087,2.7111,2.7105,2.721,2.7222,2.7257,2.7419,2.7425,2.7292,2.7298,2.7303,2.7305,0,0,0,0,0,0,0,2.686,2.6881,2.7089,2.7032,2.7033,2.7022,2.7035,2.7143,2.7172,2.709,2.7086,2.7102,2.721,2.7247,2.7259,2.7427,2.7292,2.7301,2.7307,2.7311,2.772,2.7725,0,0,0,0,0,0,2.685,2.6874,2.7084,2.7092,2.6938,2.7031,2.7046,2.7098,2.7171,2.7178,2.7106,2.7099,2.7233,2.7248,2.7264,2.7445,2.7302,2.7312,2.7317,2.7715,2.7721,2.7726,0,0,0,0,0,0,2.6845,2.687,2.7079,2.6982,2.7008,2.7041,2.71,2.7103,2.714,2.7183,2.7189,2.7138,2.723,2.725,2.7376,2.7449,2.7316,2.7325,2.7709,2.7717,2.7724,2.7808,0,0,0,0,0,0,2.6836,2.6868,2.6924,2.6984,2.7013,2.7188,2.7105,2.7109,2.7157,2.7149,2.7215,2.7222,2.7228,2.7362,2.7385,2.746,2.7332,2.7703,2.7712,2.7721,2.7798,2.7817,2.7833,0,0,0,0,0,2.6826,2.6944,2.6928,2.6953,2.7085,2.7192,2.7209,2.7213,2.7163,2.7221,2.7248,2.722,2.7437,2.7375,2.7401,2.748,2.7698,2.771,2.7721,2.7791,2.7813,2.7833,0,0,0,0,0,0,2.6893,2.6951,2.6934,2.7074,2.7128,2.7183,2.7256,2.7237,2.7307,2.7298,2.73,2.7316,2.7445,2.7475,2.7404,2.7629,2.756,2.7577,2.7604,2.7626,2.7643,2.7633,2.734,0,0,0,0,0,2.6924,2.7005,2.7052,2.7171,2.7199,2.7223,2.727,2.7268,2.7325,2.7348,2.7385,2.7442,2.7523,2.7577,2.7654,2.7803,2.7817,2.787,2.7887,2.7901,2.7916,2.7997,2.8021,2.7764,2.7764,2.7764,0,0,2.6989,2.7031,2.7082,2.7186,2.7228,2.7313,2.7243,2.7336,2.7399,2.7363,2.7483,2.7512,2.7576,2.7714,2.7777,2.7743,2.799,2.7916,2.7927,2.7934,2.8011,2.8035,2.8057,2.7772,2.777,2.7769,0,0,2.715,2.719,2.7293,2.7336,2.74,2.7416,2.7441,2.7499,2.7517,2.7637,2.7611,2.7688,2.7827,2.7874,2.7916,2.8096,2.8072,2.8121,2.8211,2.829,2.831,2.8328,2.8391,2.8414,2.8136,2.8136,2.8136,0,2.7223,2.7348,2.7349,2.7444,2.7491,2.7461,2.7566,2.7608,2.7695,2.7728,2.769,2.7864,2.7905,2.8053,2.8097,2.8133,2.8161,2.8113,2.8307,2.8325,2.8342,2.8402,2.8426,2.8142,2.8141,2.814,2.814,0,2.7434,2.7522,2.7598,2.7681,2.7736,2.7836,2.7853,2.7909,2.7903,2.7923,2.8046,2.8095,2.8181,2.8216,2.8212,2.8364,2.8341,2.8305,2.8236,2.8372,2.8428,2.8452,2.8149,2.8147,2.8146,2.8145,0,0,2.764,2.7722,2.775,2.7787,2.7856,2.7924,2.8023,2.8106,2.8154,2.8216,2.8299,2.8418,2.8385,2.8433,2.8433,2.8503,2.8641,2.8458,2.8459,2.8489,2.8811,2.8837,2.8864,2.8626,2.8631,2.8634,2.8806,0,2.7805,2.7977,2.7981,2.8139,2.822,2.8193,2.828,2.8332,2.8354,2.8427,2.8451,2.8535,2.8485,2.8514,2.8581,2.861,2.8706,2.8598,2.8704,2.8707,2.8687,2.8894,2.8921,2.908,2.8828,2.8832,2.8834,0,2.8021,2.8087,2.8253,2.831,2.8344,2.8421,2.8498,2.8568,2.8627,2.8638,2.8692,2.8682,2.8784,2.8713,2.8853,2.878,2.8824,2.8844,2.8851,2.8859,2.8778,2.8907,2.9131,2.9154,2.887,2.8867,2.8864,0,2.8153,2.8284,2.84,2.8433,2.8503,2.8558,2.859,2.8644,2.8694,2.8762,2.8794,2.8873,2.8917,2.8979,2.8991,2.8938,2.9132,2.9061,2.9143,2.9143,2.9184,2.9181,2.9417,2.9215,2.9215,2.9214,2.9214,0,2.8336,2.8438,2.846,2.8531,2.8645,2.865,2.8763,2.8791,2.884,2.8917,2.89,2.8972,2.8985,2.9061,2.9072,2.9186,2.9206,2.9218,2.9219,2.9218,2.9217,2.9246,2.9235,2.9221,2.9219,2.9218,2.9217,0,2.8502,2.8521,2.8645,2.8701,2.8717,2.8799,2.8847,2.8916,2.8936,2.9033,2.9057,2.9088,2.9177,2.9195,2.9301,2.9308,2.9443,2.9435,2.9423,2.9422,2.9502,2.9494,2.9764,2.98,2.9576,2.9578,2.958,0,2.8617,2.8694,2.8759,2.8808,2.8842,2.8923,2.8973,2.8982,2.9035,2.9109,2.9169,2.9255,2.9324,2.9467,2.95,2.9581,2.9573,2.9662,2.9585,2.9581,2.9573,2.9567,2.9575,2.9676,2.9679,2.9681,2.9682,0,2.8819,2.8824,2.8897,2.8974,2.9034,2.9095,2.9153,2.9195,2.9211,2.9273,2.9362,2.9416,2.9523,2.9609,2.9689,2.9723,2.9706,2.9707,2.973,2.9729,2.9718,2.9724,2.9462,2.97,2.9698,2.9697,2.9696,2.9695,2.8962,2.9029,2.9085,2.9167,2.9211,2.9266,2.9333,2.9361,2.9435,2.9522,2.9523,2.9621,2.9679,2.9785,2.9824,2.9901,2.9873,2.9907,2.9915,2.9923,2.993,2.9707,2.9916,2.9916,2.9915,2.9915,2.9915,0,2.9162,2.9196,2.9271,2.9352,2.9417,2.9395,2.9458,2.9514,2.9599,2.9654,2.9723,2.9826,2.9909,2.9949,3.0032,3.0086,3.008,3.0107,3.0102,3.011,2.9951,2.9922,3.011,3.011,3.011,3.011,3.011,3.011,2.9273,2.9386,2.9398,2.9533,2.9568,2.9662,2.97,2.9751,2.9795,2.991,2.9979,3.0004,3.0053,3.0139,3.0215,3.0224,3.0255,3.0286,3.0292,3.0142,3.0122,3.0103,3.0075,3.0293,3.0293,3.0444,3.0446,3.0447]},{"header":{"parameterUnit":"m.s-1","parameterCategory":1,"la1":30.2991,"la2":30.254,"lo1":-89.0895,"lo2":-89.0444,"dy":0.0017,"dx":0.0017,"nx":28,"ny":28,"refTime":"2024-06-28T03:00:00:Z","depth":0,"parameterNumber":3,"parameterNumberName":"V-component_of_WINDS"},"data":[0,0,0,0,0,0,0,0,0,0,0,0,0,0,0,0,0,0,0,0,0,0,0,0,0,0,0,0,0,0,0,0,0,0,0,0,0,0,0,0,0,0,0,0,0,0,0,0,0,0,0,0,0,0,0,0,0,0,2.294,2.2942,0,2.3191,2.3194,2.3197,2.3219,2.3217,2.3214,2.3211,2.3469,2.3478,2.3487,0,0,0,0,0,0,0,0,0,0,0,0,0,2.2477,2.2486,2.2939,2.2943,2.2946,2.3191,2.3194,2.3198,2.322,2.3217,2.3213,2.321,2.3466,2.3477,2.3488,0,0,0,0,0,0,0,0,0,0,0,0,0,2.2698,2.2488,2.2939,2.2986,2.2993,2.319,2.3194,2.3198,2.322,2.3216,2.3212,2.3209,2.3462,2.3476,2.349,2.3657,0,0,2.3533,2.3539,0,0,0,0,0,0,0,0,2.2686,2.2715,2.2976,2.2983,2.2991,2.317,2.3126,2.3352,2.3221,2.3134,2.3211,2.3207,2.3373,2.3394,2.345,2.3669,2.368,2.3534,2.3542,2.3548,2.3552,0,0,0,0,0,0,0,2.267,2.2705,2.3039,2.298,2.2989,2.2995,2.3022,2.3169,2.3273,2.3141,2.3144,2.3173,2.3376,2.3436,2.3456,2.3684,2.3534,2.3546,2.3555,2.356,2.4051,2.4055,0,0,0,0,0,0,2.2646,2.2692,2.3031,2.3047,2.2825,2.3006,2.3036,2.3116,2.3271,2.3291,2.3176,2.3173,2.3414,2.344,2.3465,2.3671,2.3548,2.3562,2.357,2.4046,2.4052,2.4057,0,0,0,0,0,0,2.2636,2.2676,2.3021,2.287,2.2914,2.3019,2.3108,2.3124,2.3184,2.3298,2.3316,2.3219,2.3412,2.3445,2.3609,2.368,2.3568,2.3581,2.4041,2.4048,2.4055,2.4082,0,0,0,0,0,0,2.2623,2.2673,2.2737,2.2871,2.2922,2.3161,2.3113,2.3131,2.3208,2.3206,2.3342,2.3361,2.3412,2.3588,2.3623,2.3697,2.3592,2.4035,2.4044,2.4052,2.4076,2.4089,2.4101,0,0,0,0,0,2.2606,2.2735,2.274,2.2781,2.3005,2.3165,2.3194,2.3249,2.3214,2.3279,2.3352,2.3357,2.3666,2.3604,2.3644,2.3723,2.4031,2.4042,2.4052,2.407,2.4087,2.4101,0,0,0,0,0,0,2.2607,2.2754,2.2761,2.2937,2.3038,2.3168,2.3253,2.3265,2.3379,2.3372,2.3436,2.3467,2.3627,2.3692,2.362,2.3893,2.3845,2.3863,2.3845,2.3862,2.3874,2.3856,2.3603,0,0,0,0,0,2.2628,2.2745,2.2867,2.3011,2.3061,2.3148,2.3219,2.3253,2.336,2.3403,2.3488,2.3592,2.3712,2.3791,2.3908,2.4084,2.4114,2.4159,2.4171,2.4181,2.4197,2.4295,2.4316,2.4091,2.4091,2.4091,0,0,2.2672,2.2767,2.2837,2.3013,2.3095,2.3215,2.3184,2.3312,2.3402,2.3423,2.3582,2.3648,2.3768,2.3938,2.4018,2.3997,2.4266,2.4195,2.4202,2.4213,2.4308,2.4329,2.4348,2.4098,2.4097,2.4096,0,0,2.2814,2.2897,2.3026,2.3109,2.3233,2.329,2.3321,2.3449,2.3494,2.3654,2.3673,2.378,2.3986,2.4071,2.4141,2.4313,2.4321,2.4349,2.4416,2.4511,2.4529,2.4545,2.4606,2.4627,2.4364,2.4364,2.4364,0,2.2853,2.3035,2.309,2.3219,2.3295,2.3319,2.345,2.3528,2.3684,2.3736,2.3711,2.397,2.4052,2.4242,2.4284,2.434,2.4377,2.4334,2.4521,2.4538,2.4554,2.4613,2.4636,2.4367,2.4366,2.4366,2.4366,0,2.3076,2.3202,2.3291,2.3441,2.3528,2.3656,2.3731,2.3812,2.3838,2.3897,2.406,2.416,2.4297,2.4345,2.4372,2.4539,2.4522,2.4508,2.4462,2.4577,2.4634,2.4657,2.437,2.437,2.4369,2.4368,0,0,2.3227,2.3406,2.3438,2.3506,2.3645,2.3743,2.3872,2.4006,2.4074,2.4181,2.4291,2.4464,2.4452,2.4531,2.4567,2.465,2.478,2.4626,2.463,2.4651,2.4971,2.4981,2.5006,2.4786,2.479,2.4794,2.4961,0,2.3384,2.3616,2.3669,2.3867,2.3984,2.4008,2.412,2.4217,2.4276,2.4383,2.4447,2.4569,2.4544,2.4592,2.4675,2.4746,2.4845,2.4735,2.4889,2.4893,2.4859,2.5036,2.5048,2.52,2.4983,2.4987,2.499,0,2.3599,2.3711,2.3921,2.4044,2.4094,2.4195,2.4322,2.4424,2.4534,2.4571,2.4659,2.4686,2.4821,2.4766,2.4953,2.4877,2.4943,2.4987,2.4994,2.5012,2.4949,2.5058,2.525,2.5273,2.5025,2.5022,2.502,0,2.3688,2.389,2.4042,2.41,2.4247,2.4317,2.4382,2.4488,2.4565,2.4676,2.4726,2.4851,2.492,2.5015,2.5076,2.503,2.5257,2.5208,2.5292,2.529,2.5339,2.5335,2.5545,2.538,2.538,2.5379,2.5379,0,2.3858,2.3986,2.4084,2.4177,2.4321,2.438,2.452,2.4585,2.4679,2.4785,2.4813,2.4912,2.4985,2.5094,2.5142,2.5289,2.5319,2.5353,2.5364,2.5351,2.5347,2.5395,2.5387,2.5386,2.5384,2.5383,2.5382,0,2.3982,2.4053,2.422,2.4345,2.438,2.448,2.4587,2.4679,2.4737,2.4871,2.4906,2.4998,2.5128,2.5197,2.5359,2.5391,2.5556,2.5561,2.5519,2.5523,2.5603,2.5595,2.5852,2.5889,2.5699,2.5701,2.5702,0,2.4086,2.4185,2.4321,2.4394,2.446,2.4578,2.4656,2.4719,2.4799,2.4932,2.5007,2.5138,2.5246,2.5452,2.5533,2.5657,2.5665,2.5747,2.5684,2.5668,2.5667,2.5661,2.5671,2.5758,2.576,2.5761,2.5762,0,2.4264,2.4294,2.4407,2.4532,2.4625,2.4727,2.4827,2.4885,2.4963,2.5053,2.5185,2.5269,2.5434,2.5564,2.5694,2.576,2.5775,2.5781,2.5807,2.5795,2.5767,2.5784,2.5549,2.5775,2.5774,2.5773,2.5772,2.5772,2.4382,2.447,2.458,2.4704,2.4786,2.4879,2.4971,2.5041,2.5153,2.5293,2.5322,2.5462,2.5569,2.5746,2.5815,2.5925,2.5909,2.5947,2.5956,2.5965,2.5968,2.5748,2.5949,2.5949,2.5949,2.5948,2.5948,0,2.4561,2.4633,2.4746,2.4886,2.4984,2.4988,2.5099,2.5181,2.5304,2.5403,2.5508,2.5661,2.5786,2.5877,2.6005,2.6076,2.6085,2.6107,2.6103,2.6118,2.5975,2.594,2.6097,2.6097,2.6097,2.6097,2.6097,2.6097,2.4666,2.4816,2.4859,2.505,2.5121,2.5258,2.5321,2.5407,2.5486,2.5655,2.576,2.5818,2.5914,2.6048,2.6164,2.6187,2.6233,2.6254,2.6278,2.6144,2.6128,2.6113,2.608,2.6264,2.6264,2.6412,2.6413,2.6414]}]]